KM5VY Weather Reports


Display with metric or nautical units.
time (UTC)temp
F
wind
direction
speed
MPH
gust
MPH
rain 1hr
in
rain 24hr
in
rain mn
in
humidity
%
barometer
mb
20260510215857 72 113 8.0 20.0 0.00 0.00 0.00 32 1023.4
20260510214856 72 45 16.0 16.0 0.00 0.00 0.00 32 1023.7
20260510213855 72 68 0.0 4.0 0.00 0.00 0.00 32 1023.7
20260510212854 73 68 5.0 13.0 0.00 0.00 0.00 32 1023.7
20260510211853 73 68 3.0 8.0 0.00 0.00 0.00 32 1023.7
20260510210852 72 135 0.0 7.0 0.00 0.00 0.00 32 1024.0
20260510205851 73 113 0.0 11.0 0.00 0.00 0.00 31 1023.7
20260510204851 73 180 6.0 6.0 0.00 0.00 0.00 31 1023.7
20260510203850 73 338 0.0 17.0 0.00 0.00 0.00 32 1023.7
20260510202849 73 68 3.0 13.0 0.00 0.00 0.00 32 1023.7
20260510201847 71 158 0.0 5.0 0.00 0.00 0.00 32 1023.7
20260510200846 69 68 4.0 6.0 0.00 0.00 0.00 33 1023.7
20260510194844 70 68 0.0 13.0 0.00 0.00 0.00 30 1023.7
20260510193843 72 90 0.0 11.0 0.00 0.00 0.00 29 1023.4
20260510192842 75 135 0.0 13.0 0.00 0.00 0.00 27 1023.0
20260510191841 78 45 1.0 4.0 0.00 0.00 0.00 25 1023.0
20260510190840 78 203 5.0 7.0 0.00 0.00 0.00 25 1022.7
20260510185840 77 180 8.0 10.0 0.00 0.00 0.00 27 1023.0
20260510183837 77 135 2.0 3.0 0.00 0.00 0.00 27 1023.0
20260510182837 77 113 0.0 5.0 0.00 0.00 0.00 27 1023.0
20260510181836 75 113 0.0 2.0 0.00 0.00 0.00 28 1023.0
20260510180834 75 90 2.0 10.0 0.00 0.00 0.00 28 1023.0
20260510175833 74 90 0.0 15.0 0.00 0.00 0.00 29 1023.0
20260510174832 71 113 2.0 7.0 0.00 0.00 0.00 30 1023.0
20260510173831 71 135 0.0 9.0 0.00 0.00 0.00 29 1023.0
20260510172830 71 68 8.0 8.0 0.00 0.00 0.00 29 1023.0
20260510171829 72 68 14.0 6.0 0.00 0.00 0.00 28 1023.0
20260510170829 74 90 0.0 9.0 0.00 0.00 0.00 25 1023.0
20260510165827 75 135 0.0 7.0 0.00 0.00 0.00 25 1023.0
20260510164827 76 68 6.0 12.0 0.00 0.00 0.00 25 1022.7
20260510163825 75 180 4.0 17.0 0.00 0.00 0.00 27 1023.0
20260510162825 73 135 0.0 6.0 0.00 0.00 0.00 27 1023.0
20260510161825 73 135 2.0 6.0 0.00 0.00 0.00 28 1023.0
20260510160822 71 113 0.0 2.0 0.00 0.00 0.00 29 1023.0
20260510155821 70 68 5.0 4.0 0.00 0.00 0.00 29 1023.0
20260510154821 69 180 5.0 6.0 0.00 0.00 0.00 30 1023.4
20260510153820 67 158 1.0 6.0 0.00 0.00 0.00 31 1023.7
20260510152818 66 68 0.0 4.0 0.00 0.00 0.00 33 1024.0
20260510151817 65 180 0.0 7.0 0.00 0.00 0.00 33 1023.4
20260510150816 63 180 0.0 4.0 0.00 0.00 0.00 34 1022.7
20260510145815 62 158 3.0 9.0 0.00 0.00 0.00 35 1022.3
20260510144814 61 180 0.0 10.0 0.00 0.00 0.00 36 1021.7
20260510140810 57 158 0.0 9.0 0.00 0.00 0.00 37 1020.7
20260510135809 57 135 0.0 0.0 0.00 0.00 0.00 37 1020.7
20260510133807 56 158 0.0 3.0 0.00 0.00 0.00 37 1020.7
20260510132806 56 360 0.0 0.0 0.00 0.00 0.00 36 1020.7
20260510131806 55 360 0.0 0.0 0.00 0.00 0.00 36 1020.7
20260510130804 55 360 0.0 0.0 0.00 0.00 0.00 35 1020.7
20260510123801 56 360 0.0 0.0 0.00 0.00 0.00 33 1021.0
20260510122800 56 360 0.0 0.0 0.00 0.00 0.00 33 1021.3
20260510121759 57 360 0.0 0.0 0.00 0.00 0.00 32 1021.3
20260510120758 57 360 0.0 0.0 0.00 0.00 0.00 32 1021.7
20260510115757 57 360 0.0 0.0 0.00 0.00 0.00 32 1021.7
20260510114756 58 360 0.0 0.0 0.00 0.00 0.00 32 1021.7
20260510113755 58 360 0.0 0.0 0.00 0.00 0.00 32 1021.7
20260510111754 58 338 0.0 4.0 0.00 0.00 0.00 32 1021.7
20260510110753 58 293 0.0 0.0 0.00 0.00 0.00 32 1021.7
20260510105751 58 225 0.0 15.0 0.00 0.00 0.00 32 1021.7
20260510104751 57 293 3.0 9.0 0.00 0.00 0.00 30 1021.7
20260510103750 57 270 0.0 0.0 0.00 0.00 0.00 29 1021.7
20260510102749 57 360 0.0 0.0 0.00 0.00 0.00 29 1022.0
20260510101747 57 45 0.0 0.0 0.00 0.00 0.00 29 1022.0
20260510100747 57 45 0.0 0.0 0.00 0.00 0.00 28 1021.7
20260510095931 58 45 0.0 0.0 0.00 0.00 0.00 28 1021.0
20260510095746 58 45 0.0 0.0 0.00 0.00 0.00 28 1021.0
20260510094745 58 45 0.0 0.0 0.00 0.00 0.00 28 1021.0
20260510093744 58 68 0.0 0.0 0.00 0.00 0.00 28 1020.7
20260510092742 58 68 0.0 0.0 0.00 0.00 0.00 28 1020.7
20260510091742 59 68 0.0 0.0 0.00 0.00 0.00 28 1020.7
20260510090741 58 68 0.0 0.0 0.00 0.00 0.00 28 1020.3
20260510085740 58 338 0.0 0.0 0.00 0.00 0.00 27 1020.0
20260510084739 58 315 0.0 0.0 0.00 0.00 0.00 27 1019.6
20260510083738 58 315 0.0 0.0 0.00 0.00 0.00 27 1019.6
20260510082737 58 315 0.0 0.0 0.00 0.00 0.00 27 1019.6
20260510081736 59 315 0.0 0.0 0.00 0.00 0.00 26 1019.6
20260510080735 59 315 0.0 2.0 0.00 0.00 0.00 26 1019.3
20260510075734 59 315 0.0 0.0 0.00 0.00 0.00 26 1019.3
20260510074733 59 315 0.0 0.0 0.00 0.00 0.00 26 1019.3
20260510073732 59 315 0.0 5.0 0.00 0.00 0.00 26 1019.3
20260510072917 58 293 0.0 0.0 0.00 0.00 0.00 26 1019.3
20260510072730 58 293 0.0 0.0 0.00 0.00 0.00 26 1019.3
20260510071729 58 360 0.0 0.0 0.00 0.00 0.00 26 1019.3
20260510070729 58 23 0.0 0.0 0.00 0.00 0.00 26 1019.3
20260510065727 58 23 0.0 3.0 0.00 0.00 0.00 26 1019.0
20260510064726 58 23 0.0 0.0 0.00 0.00 0.00 26 1019.0
20260510063726 57 23 0.0 3.0 0.00 0.00 0.00 26 1019.0
20260510061724 55 360 0.0 0.0 0.00 0.00 0.00 27 1018.6
20260510060723 55 360 0.0 1.0 0.00 0.00 0.00 26 1018.3
20260510055721 56 360 0.0 0.0 0.00 0.00 0.00 26 1018.3
20260510054721 56 360 0.0 0.0 0.00 0.00 0.00 26 1018.3
20260510053719 57 360 0.0 0.0 0.00 0.00 0.00 26 1018.3
20260510052718 57 360 0.0 0.0 0.00 0.00 0.00 25 1017.9
20260510051717 58 360 0.0 0.0 0.00 0.00 0.00 25 1017.9
20260510050716 59 360 0.0 0.0 0.00 0.00 0.00 25 1017.9
20260510045715 60 360 0.0 0.0 0.00 0.00 0.00 24 1017.9
20260510044714 61 360 0.0 0.0 0.00 0.00 0.00 24 1017.9
20260510043713 62 360 0.0 0.0 0.00 0.00 0.00 24 1017.9
20260510041711 64 360 0.0 0.0 0.00 0.00 0.00 23 1017.6
20260510040710 65 360 0.0 0.0 0.00 0.00 0.00 23 1017.6
20260510035709 65 360 0.0 0.0 0.00 0.00 0.00 22 1017.3
20260510034708 66 360 0.0 0.0 0.00 0.00 0.00 22 1017.3
20260510033708 66 360 0.0 0.0 0.00 0.00 0.00 22 1016.9
20260510032706 66 270 5.0 7.0 0.00 0.00 0.00 22 1017.3
20260510031705 65 315 0.0 4.0 0.00 0.00 0.00 22 1017.3
20260510030704 65 315 0.0 12.0 0.00 0.00 0.00 23 1017.3
20260510021700 68 315 0.0 0.0 0.00 0.00 0.00 20 1016.6
20260510020658 69 315 0.0 0.0 0.00 0.00 0.00 19 1016.3
20260510015657 70 315 0.0 0.0 0.00 0.00 0.00 19 1016.3
20260510014656 70 315 0.0 0.0 0.00 0.00 0.00 19 1015.9
20260510013655 71 315 0.0 0.0 0.00 0.00 0.00 18 1016.3
20260510012654 72 315 0.0 2.0 0.00 0.00 0.00 18 1015.9
20260510011653 72 315 0.0 3.0 0.00 0.00 0.00 18 1015.9
20260510010652 73 270 3.0 4.0 0.00 0.00 0.00 18 1015.9
20260510005651 73 270 0.0 20.0 0.00 0.00 0.00 18 1015.9
20260510004650 74 315 0.0 7.0 0.00 0.00 0.00 17 1015.9
20260510003649 75 270 0.0 5.0 0.00 0.00 0.00 17 1015.6
20260510002648 75 270 0.0 1.0 0.00 0.00 0.00 17 1015.6
20260510001647 76 315 3.0 11.0 0.00 0.00 0.00 17 1015.6
20260510000647 76 270 4.0 7.0 0.00 0.00 0.00 17 1015.6
20260509235646 77 293 0.0 7.0 0.00 0.00 0.00 16 1015.6
20260509234644 78 315 2.0 4.0 0.00 0.00 0.00 16 1015.9
20260509233644 78 315 0.0 4.0 0.00 0.00 0.00 16 1015.9
20260509232643 79 315 0.0 5.0 0.00 0.00 0.00 16 1015.9
20260509231642 80 360 7.0 10.0 0.00 0.00 0.00 16 1015.9
20260509225640 81 293 5.0 13.0 0.00 0.00 0.00 15 1015.9
20260509223638 81 338 0.0 16.0 0.00 0.00 0.00 15 1015.9
20260509220634 82 338 5.0 15.0 0.00 0.00 0.00 15 1016.3